NOAA 16 DEB, 41296

Orbit data source: Space-Track

NOAA 16 DEB, 41296 is space debris in SSO originally from a launch on Thu, 21 Sep 2000 UTC launched from the Air Force Western Test Range (AFWTR). Debris objects in space refer to the collection of defunct objects orbiting the Earth. Examples of debris include non-operational satellites, rocket bodies, and fragments generated from explosions, collisions, or faulty payload assembly.

Loading next visibility...
Identifier
41296, 2000-055GY
Orbit
SSO
Country
Flag of USUS
Related business
Manufacturer
Unknown
Mission
Spacecraft
Bus & Motor
Unknown
Mass
Unknown
Launch date (UTC)
2000-09-21 (26 years ago)
Launch vehicle
Unknown
Launch site
Air Force Western Test Range (AFWTR)
Object type
Payload
Rocket body
Debris
Shape & HBR
Unknown shape, 0.1 m
Radar Cross Section
Small (<0.1 m²)

Expand to show TLE details & history
Last TLE update: 8 hours ago

TLE from 8 hours ago
0 NOAA 16 DEB
1 41296U 00055GY  26124.11995727  .00002470  00000-0  11682-2 0  9991
2 41296  98.7118 182.1007 0023009 291.1226  68.7491 14.20468150532695
Epoch: 2026-05-04T02:52Z
TLE epoch observation values (Epoch: 2026-05-04T02:52:44.308Z)
Latitude
-0.00004°
Longitude
-83.09763°
Altitude
820.711 km
Speed
7.446 km/s
True Right ascension
12h 08m 24s
True Declination
0° 00' 00"
Sunlit
Object was in full shadow at epoch
Visualization orbit readout
Latitude
Unknown
Longitude
Unknown
Altitude
Unknown
Speed
Unknown
Apparent Right ascension
Unknown
Apparent Declination
Unknown
Sunlit
N/A
Visualization observer readout
Local Sidereal Time
18:49:09
Azimuth
Unknown
Elevation
Unknown
Doppler factor
Unknown
Orbital elements
Apogee altitude
837.492 km
Perigee altitude
804.364 km
Semi-major axis
7,199.065 km
Eccentricity
0.0023
Inclination
98.7118°
RAAN
182.1007°
Arg. of periapsis
291.1226°
True anomaly
68.99509°
Mean anomaly
68.7491°
Eccentric anomaly
68.87207°
Mean motion
3.55328 °/min
Orbital period
101.31 mins
BSTAR
0.0011682
Loading maneuver chart data...
Computing Atmospheric mass density...
Loading historical data...
Loading historical data...
Loading historical data...
Loading historical data...
Loading historical data...
Loading historical data...
Loading historical data...

Documentation

Showing up to 5 results
|